Le nostre stazioni meteo in Italia

Pubblicità
Il mio iltempo24.it
Capo Bellavista, Italia (16550): Temperatura & dewpoint: 17.07.2019 06:00:00 - 23.07.2019 06:00:00 (CEST)Capo Bellavista, Italia (16550): velocità del vento: 17.07.2019 06:00:00 - 23.07.2019 06:00:00 (CEST)Capo Bellavista, Italia (16550): direzione del vento: 17.07.2019 06:00:00 - 23.07.2019 06:00:00 (CEST)Capo Bellavista, Italia (16550): reduced air pressure: 17.07.2019 06:00:00 - 23.07.2019 06:00:00 (CEST)Capo Bellavista, Italia (16550): visibility: 17.07.2019 06:00:00 - 23.07.2019 06:00:00 (CEST)Capo Bellavista, Italia (16550): ore di luce: 17.07.2019 06:00:00 - 23.07.2019 06:00:00 (CEST)
Data & Tempo tt [°C] td [°C] ff [km/h] ff [kn] dd ppp [hPa] vv [km] sd [min]
23.07.2019 06:00:00 24,2 16,0 11 6 N 1018,7 20 -
23.07.2019 05:00:00 24,4 21,6 13 7 NE 1018,7 20 -
23.07.2019 04:00:00 24,4 21,0 15 8 NE 1019,1 20 -
23.07.2019 03:00:00 24,6 17,5 9 5 NE 1019,3 20 -
23.07.2019 02:00:00 24,6 19,7 9 5 NNE 1019,3 20 -
23.07.2019 01:00:00 24,6 22,4 8 4 ONO 1019,3 20 -
23.07.2019 00:00:00 25,0 22,6 8 4 ONO 1019,3 20 -
22.07.2019 23:00:00 25,2 23,0 5 3 SO 1019,3 20 -
22.07.2019 22:00:00 25,4 23,5 5 3 ENE 1019,3 20 -
22.07.2019 21:00:00 27,8 23,2 9 5 ESE 1019,1 20 30
22.07.2019 20:00:00 29,6 22,8 8 4 SE 1019,0 30 60
22.07.2019 19:00:00 30,0 22,6 9 5 SE 1019,6 20 60
22.07.2019 18:00:00 30,2 22,8 9 5 S 1020,0 20 60
22.07.2019 17:00:00 31,0 22,2 9 5 S 1020,5 20 60
22.07.2019 16:00:00 31,4 19,8 9 5 S 1021,0 20 60
22.07.2019 15:00:00 31,0 21,9 15 8 ESE 1021,0 20 60
22.07.2019 14:00:00 30,2 20,7 18 10 E 1021,0 20 60
22.07.2019 13:00:00 30,4 21,9 21 11 E 1021,0 20 60
22.07.2019 12:00:00 30,6 23,3 18 10 E 1021,0 30 60
22.07.2019 11:00:00 30,0 16,0 13 7 E 1020,8 20 60
22.07.2019 10:00:00 28,0 16,4 9 5 ESE 1020,0 30 60
22.07.2019 09:00:00 24,4 11,7 4 2 ONO 1020,3 20 60
22.07.2019 08:00:00 23,0 14,3 9 5 N 1020,4 30 60
22.07.2019 07:00:00 22,6 18,0 13 7 NO 1020,4 20 6
22.07.2019 06:00:00 22,6 16,4 9 5 N 1020,5 20 60
22.07.2019 05:00:00 23,0 15,3 13 7 NE 1020,5 20 -
22.07.2019 04:00:00 24,4 18,6 13 7 NNO 1020,1 20 -
22.07.2019 03:00:00 24,6 23,4 4 2 SSO 1020,4 20 -
22.07.2019 02:00:00 24,0 22,8 13 7 S 1020,4 20 -
22.07.2019 01:00:00 24,0 23,0 13 7 SSO 1020,3 20 -
22.07.2019 00:00:00 24,0 21,3 13 7 SO 1020,3 20 -
21.07.2019 23:00:00 24,4 24,4 15 8 SO 1020,3 20 -
21.07.2019 22:00:00 24,8 24,5 21 11 SO 1020,1 20 -
21.07.2019 21:00:00 25,8 24,8 22 12 SSO 1019,9 20 0
21.07.2019 20:00:00 27,6 23,4 18 10 SSO 1019,8 30 60
21.07.2019 19:00:00 28,6 23,1 21 11 SSO 1019,8 20 60
21.07.2019 18:00:00 29,8 22,5 13 7 S 1019,9 20 60
21.07.2019 17:00:00 30,8 22,4 11 6 SSE 1019,9 20 60
21.07.2019 16:00:00 31,0 22,6 9 5 SSE 1020,0 30 60
21.07.2019 15:00:00 32,0 22,1 9 5 N 1020,0 20 60
21.07.2019 14:00:00 32,4 21,3 11 6 S 1020,0 10 60
21.07.2019 13:00:00 32,0 20,9 8 4 SSE 1020,0 20 60
21.07.2019 12:00:00 31,0 23,1 8 4 SE 1020,0 30 60
21.07.2019 11:00:00 29,0 22,0 8 4 SSE 1019,3 20 60
21.07.2019 10:00:00 27,0 21,3 8 4 SSE 1019,8 30 60
21.07.2019 09:00:00 24,0 17,0 8 4 O 1019,8 20 60
21.07.2019 08:00:00 21,8 16,7 11 6 NO 1019,5 20 60
21.07.2019 07:00:00 21,4 17,8 16 9 NO 1019,5 20 -
21.07.2019 06:00:00 21,2 18,6 21 11 NO 1019,4 20 -
21.07.2019 05:00:00 21,6 19,7 16 9 NO 1019,4 20 -
21.07.2019 04:00:00 22,6 20,9 11 6 SO 1019,4 20 -
21.07.2019 03:00:00 22,2 22,2 11 6 O 1019,3 20 -
21.07.2019 02:00:00 22,8 21,4 11 6 O 1019,0 20 -
21.07.2019 01:00:00 23,6 20,9 13 7 OSO 1018,7 20 -
21.07.2019 00:00:00 23,6 21,9 11 6 SO 1018,5 20 -
20.07.2019 23:00:00 24,4 23,4 13 7 SO 1018,4 20 -
20.07.2019 22:00:00 24,4 23,0 13 7 SO 1018,3 20 -
20.07.2019 21:00:00 25,4 22,7 16 9 SSO 1018,0 20 -
20.07.2019 20:00:00 28,0 20,8 11 6 S 1017,8 20 60
20.07.2019 19:00:00 28,8 21,8 11 6 SE 1018,0 20 60
20.07.2019 18:00:00 29,0 20,5 11 6 S 1018,0 20 60
20.07.2019 17:00:00 29,8 21,2 8 4 E 1018,0 20 60
20.07.2019 16:00:00 30,0 21,1 9 5 SE 1018,0 30 60
20.07.2019 15:00:00 31,0 19,4 11 6 NE 1017,8 20 60
20.07.2019 14:00:00 33,6 21,7 9 5 SSO 1017,3 20 60
20.07.2019 13:00:00 33,4 21,6 13 7 SE 1017,5 20 60
20.07.2019 12:00:00 32,0 21,8 8 4 NO 1017,3 20 60
20.07.2019 11:00:00 31,0 22,3 8 4 NE 1016,8 20 60
20.07.2019 10:00:00 26,6 22,0 8 4 N 1017,0 30 60
20.07.2019 09:00:00 25,0 19,6 5 3 SO 1016,5 20 60
20.07.2019 08:00:00 21,4 16,4 15 8 NO 1016,5 20 60
20.07.2019 07:00:00 21,4 16,6 15 8 ONO 1016,4 30 0
20.07.2019 06:00:00 21,4 15,3 15 8 NO 1016,4 20 -
20.07.2019 05:00:00 22,0 16,3 11 6 NO 1016,3 20 -
20.07.2019 04:00:00 22,0 16,5 8 4 NO 1016,3 20 -
20.07.2019 03:00:00 22,8 15,4 5 3 NNO 1016,4 20 -
20.07.2019 02:00:00 23,0 19,0 4 2 NNO 1016,3 20 -
20.07.2019 01:00:00 23,0 20,0 11 6 O 1016,3 10 -
20.07.2019 00:00:00 23,0 20,9 11 6 ONO 1016,3 20 -
19.07.2019 23:00:00 23,8 22,1 9 5 ONO 1016,2 20 -
19.07.2019 22:00:00 24,4 21,3 8 4 OSO 1015,3 20 -
19.07.2019 21:00:00 25,0 21,5 5 3 S 1015,2 20 12
19.07.2019 20:00:00 27,8 21,8 8 4 ONO 1015,0 20 60
19.07.2019 19:00:00 28,4 19,9 8 4 SSE 1015,0 20 60
19.07.2019 18:00:00 29,0 19,0 8 4 S 1015,2 20 60
19.07.2019 17:00:00 30,2 18,6 9 5 SSE 1015,4 20 60
19.07.2019 16:00:00 32,0 20,3 9 5 SSE 1015,6 20 60
19.07.2019 15:00:00 32,2 20,8 11 6 SSE 1015,7 20 60
19.07.2019 14:00:00 32,0 20,3 8 4 SSE 1015,7 20 60
19.07.2019 13:00:00 30,0 20,6 16 9 ESE 1015,5 20 60
19.07.2019 12:00:00 29,6 16,8 21 11 E 1015,3 20 60
19.07.2019 11:00:00 29,2 19,5 16 9 ESE 1014,1 20 60
19.07.2019 10:00:00 28,0 21,5 15 8 E 1014,8 20 60
19.07.2019 09:00:00 25,0 19,9 8 4 E 1014,1 20 60
19.07.2019 08:00:00 23,6 19,3 8 4 ENE 1014,2 20 54
19.07.2019 07:00:00 22,4 16,0 4 2 NNO 1013,9 20 0
19.07.2019 06:00:00 22,2 21,4 9 5 ENE 1013,7 20 -
19.07.2019 05:00:00 22,8 22,5 13 7 NE 1013,6 20 -
19.07.2019 04:00:00 22,4 20,4 16 9 N 1013,6 20 -
19.07.2019 03:00:00 22,8 17,5 11 6 NNO 1013,5 20 -
19.07.2019 02:00:00 22,4 19,8 9 5 O 1013,6 20 -
19.07.2019 01:00:00 22,4 20,7 15 8 ONO 1013,4 20 -
19.07.2019 00:00:00 22,8 22,0 11 6 OSO 1013,3 20 -
18.07.2019 23:00:00 23,6 23,0 11 6 SSO 1013,0 20 -
18.07.2019 22:00:00 24,0 23,7 11 6 SO 1012,3 20 -
18.07.2019 21:00:00 25,0 22,8 4 2 S 1012,1 20 0
18.07.2019 20:00:00 25,8 22,2 8 4 SE 1011,9 20 12
18.07.2019 19:00:00 27,8 21,7 11 6 SE 1011,9 20 48
18.07.2019 18:00:00 29,0 21,5 8 4 S 1011,9 30 60
18.07.2019 17:00:00 30,2 21,0 9 5 SSE 1011,9 20 60
18.07.2019 16:00:00 30,6 20,9 15 8 SE 1011,7 20 60
18.07.2019 15:00:00 30,6 19,6 13 7 SE 1011,8 20 60
18.07.2019 14:00:00 30,0 19,5 18 10 ESE 1011,8 20 60
18.07.2019 13:00:00 28,8 20,7 18 10 ESE 1011,9 30 60
18.07.2019 12:00:00 28,2 20,6 18 10 E 1011,8 20 60
18.07.2019 11:00:00 28,0 21,3 15 8 E 1011,7 20 60
18.07.2019 10:00:00 27,0 20,6 16 9 SE 1011,7 20 60
18.07.2019 09:00:00 25,8 18,5 13 7 NE 1011,1 30 60
18.07.2019 08:00:00 21,2 14,3 11 6 NNO 1011,4 20 60
18.07.2019 07:00:00 21,0 13,0 16 9 NO 1011,4 20 0
18.07.2019 06:00:00 21,6 16,5 16 9 NNE 1011,3 20 -
18.07.2019 05:00:00 22,0 20,6 22 12 NE 1011,3 20 -
18.07.2019 04:00:00 22,0 20,3 16 9 NE 1011,2 30 -
18.07.2019 03:00:00 21,8 18,0 15 8 N 1011,8 20 -
18.07.2019 02:00:00 21,8 14,3 13 7 NNO 1012,3 20 -
18.07.2019 01:00:00 22,0 16,6 15 8 NO 1012,3 20 -
18.07.2019 00:00:00 22,0 18,8 16 9 ONO 1012,4 20 -
17.07.2019 23:00:00 23,0 22,2 9 5 O 1012,2 20 -
17.07.2019 22:00:00 23,6 -30,0 4 2 S 1012,2 20 -
17.07.2019 21:00:00 24,2 21,4 5 3 SSE 1012,2 20 6
17.07.2019 20:00:00 26,2 20,6 8 4 SSE 1012,1 20 48
17.07.2019 19:00:00 29,0 19,0 9 5 S 1012,0 20 60
17.07.2019 18:00:00 29,2 16,1 8 4 ENE 1012,2 20 60
17.07.2019 17:00:00 30,2 15,2 9 5 OSO 1012,9 20 60
17.07.2019 16:00:00 31,0 14,7 13 7 SSO 1012,8 20 60
17.07.2019 15:00:00 32,0 14,1 9 5 S 1012,9 20 60
17.07.2019 14:00:00 32,0 14,9 8 4 ENE 1012,8 20 60
17.07.2019 13:00:00 30,8 16,7 21 11 SE 1012,9 20 60
17.07.2019 12:00:00 30,4 15,5 18 10 SE 1013,0 20 60
17.07.2019 11:00:00 29,2 15,4 16 9 ESE 1012,9 20 60
17.07.2019 10:00:00 27,8 16,2 13 7 E 1013,0 20 60
17.07.2019 09:00:00 24,0 9,6 4 2 N 1013,3 20 60
17.07.2019 08:00:00 22,0 8,9 13 7 ONO 1013,1 20 60
17.07.2019 07:00:00 21,2 21,2 18 10 ONO 1013,0 20 18
17.07.2019 06:00:00 21,0 9,0 16 9 ONO 1013,0 20 18

tt = Temperatura
td = dewpoint
ff = velocità del vento
dd = direzione del vento
ppp = reduced air pressure
vv = visibility
sd = ore di luce

Stazioni seguenti

WeatherPro
AMSI
MeteoEarth